This demonstration page uses our WeatherBlox Daily Observations layout. Learn more.

Left ArrowRight Arrow

Hourly Observations for July 31, 2017

Temp ( °F °C ) Dew Point ( °F °C ) Humidity (%) Winds ( mph kmh ) Pressure ( in mb ) Visibility ( mi km ) Precip ( " mm )
12:53 am 00:53 Mostly Cloudy 69 20.6 62 16.7 78 78 SE 8 13 30.16 1021 10 16 0.00 0.00
1:53 am 01:53 Cloudy 69 20.6 62 16.7 78 78 ESE 8 13 30.17 1022 10 16 0.00 0.00
2:53 am 02:53 Cloudy with Light Rain 69 20.6 62 16.7 78 78 SE 9 15 30.15 1021 10 16 0.00 0.03
3:53 am 03:53 Mostly Clear 67 19.4 62 16.7 84 84 SSE 6 9 30.14 1021 10 16 0.00 0.03
4:53 am 04:53 Cloudy 67 19.4 62 16.7 84 84 SSE 5 7 30.13 1020 10 16 0.00 0.00
5:53 am 05:53 Cloudy 67 19.4 62 16.7 84 84 S 6 9 30.13 1020 10 16 0.00 0.00
6:53 am 06:53 Mostly Cloudy 67 19.4 62 16.7 84 84 S 7 11 30.14 1021 10 16 0.00 0.00
7:53 am 07:53 Mostly Cloudy 67 19.4 62 16.7 84 84 SSW 9 15 30.14 1021 10 16 0.00 0.00
8:53 am 08:53 Cloudy 69 20.6 62 16.7 78 78 SSW 8 13 30.17 1022 10 16 0.00 0.00
9:53 am 09:53 Cloudy 68 20 62 16.7 81 81 S 6 9 30.18 1022 10 16 0.00 0.00
10:53 am 10:53 Cloudy 69 20.6 63 17.2 81 81 S 7 11 30.18 1022 10 16 0.00 0.00
11:53 am 11:53 Cloudy 72 22.2 63 17.2 73 73 SSW 12 19 30.17 1022 10 16 0.00 0.00
12:53 pm 12:53 Cloudy 76 24.4 64 17.8 67 67 S 9 15 30.15 1021 10 16 0.00 0.00
1:44 pm 13:44 Mostly Cloudy 75 24 64 18 69 69 SW 7 11 30.09 1019 10 16 0.00 0.00
1:53 pm 13:53 Cloudy 76 24.4 64 17.8 67 67 S 9 15 30.15 1021 10 16 0.00 0.00
2:53 pm 14:53 Cloudy 75 23.9 63 17.2 66 66 SSW 8 13 30.14 1021 10 16 0.00 0.00
3:53 pm 15:53 Cloudy 77 25 63 17.2 62 62 S 9 15 30.13 1020 10 16 0.00 0.00
4:53 pm 16:53 Cloudy 77 25 63 17.2 62 62 SW 6 9 30.11 1020 10 16 0.00 0.00
5:53 pm 17:53 Partly Cloudy 78 25.6 63 17.2 60 60 VRB 6 9 30.10 1019 10 16 0.00 0.00
6:53 pm 18:53 Sunny 78 25.6 63 17.2 60 60 SSE 7 11 30.09 1019 10 16 0.00 0.00
7:53 pm 19:53 Sunny 75 23.9 64 17.8 69 69 S 6 9 30.09 1019 10 16 0.00 0.00
8:53 pm 20:53 Clear 73 22.8 63 17.2 71 71 S 6 9 30.09 1019 10 16 0.00 0.00
9:53 pm 21:53 Clear 70 21.1 64 17.8 82 82 S 6 9 30.11 1020 10 16 0.00 0.00
10:53 pm 22:53 Clear 68 20 64 17.8 87 87 SSW 6 9 30.12 1020 10 16 0.00 0.00
11:53 pm 23:53 Clear 67 19.4 63 17.2 87 87 SSW 7 11 30.13 1020 10 16 0.00 0.00

Powered by AerisWeather